User: anonymous   Login
Location: Betra
(48.4113°N, 8.6634°E)
Time: 11:25:37
(UTC+00:00)
Language:

Cosmos 841 Rocket - Orbit

View from above orbital plane
View from above orbital plane
View from above satellite
View from above satellite

Ground track
Ground track

The orbit data is extracted from the following two-line orbital elements,

1 09023U 76069B   24205.67132520  .00000842  00000-0  27280-3 0  9997
2 09023  74.0444 348.6237 0017980 234.9963 124.9505 14.40454533517780
Epoch (UTC): 23 July 2024 16:06:42
Eccentricity: 0.0017980
inclination: 74.0444°
perigee height: 744 km
apogee height: 770 km
right ascension of ascending node: 348.6237°
argument of perigee: 234.9963°
revolutions per day: 14.40454533
mean anomaly at epoch: 124.9505°
orbit number at epoch: 51778

The dashed part of the orbit path shows where the satellite is in the earth's shadow,  

DLR